STARLINK-1635 (46172 NORAD) Tracking and Keplerian Element Data

This shows tracking and keplerian element data for the satellite.

Feedback or suggestion? Click here.




ElementValue
Catalog46172
NameSTARLINK-1635
Epoch Orbit176
Epoch Day338.66668981
Epoch Year2020
RAAN285.0107
Inclination52.9819
Eccentricity0.0001695
Argument of Perigee61.5185
Mean Anonmoly147.8614
Mean Motion15.05575844
Decay Rate0.00024794
L11 46172U 20057BH 20338.66668981 .00024794 00000-0 17150-2 0 9992
L22 46172 52.9819 285.0107 0001695 61.5185 147.8614 15.05575844 1765

Live tracking and technical data element details for STARLINK-1635 (NORAD 46172). STARLINK-1635 can be tracked NOW for your location showing map with azimuth and elevation plus other details from your city location.

Track the satellite on the map from your city or location and see movement details for azimuth, elevation, latitude, longitude, range, height, and movement on the map or in text.







IsCatalogInMostPopularTable: catalog: 46172, numindb: 20
Update: records affected: 1



GetName: 46172 STARLINK-1635

Hit Count: updated at: Sat, 05 Dec 2020 05:59:41 GMT